Location: Tierra del Sol
(32.6128°N, 116.3319°W)
Time: 05:06:05
(UTC-07:00)

OTV 5 (USA 277) - Pass Details

Date: 09 October 2017
Orbit: 404 x 417 km, 43.0° (Epoch: 07 September)

Event Time Altitude Azimuth Distance (km) Brightness Sun altitude
Rises 19:01:58 0° 237° (WSW) 2,342 ? -9.8°
Reaches altitude 10° 19:04:04 10° 237° (WSW) 1,482 ? -10.2°
Maximum altitude 19:07:25 88° 153° (SSE) 419 ? -11.0°
Enters shadow 19:10:06 15° 59° (ENE) 1,211 ? -11.5°
